Weather History for KMIB - October, 2011

Change the Weather History Date:

Wednesday, October 12, 2011

  Actual Average Record
Temperature  
Mean Temperature 50 °F -  
Max Temperature 62 °F 55 °F 73 °F (1996)
Min Temperature 39 °F 32 °F 22 °F (2006)
Degree Days  
Heating Degree Days 14    
Moisture  
Dew Point 46 °F    
Average Humidity 87    
Maximum Humidity 100    
Minimum Humidity 58    
Precipitation  
Precipitation 0.00 in - - ()
Sea Level Pressure  
Sea Level Pressure 29.76 in    
Wind  
Wind Speed 9 mph (WNW)    
Max Wind Speed 18 mph    
Max Gust Speed 23 mph    
Visibility 9 miles    
Events      
Averages and records for this station are not official NWS values.
T = Trace of Precipitation, MM = Missing Value Source: NWS Daily Summary

Daily Weather History Graph

Daily Weather History Graph

Search for Another Location

Airport or City:

Trip Planner

Search our weather history database for the weather conditions in past years. The results will help you decide how hot, cold, wet, or windy it might be!

Date:

Astronomy

Oct. 12, 2011 Rise Set
Actual Time 8:00 AM CDT 7:02 PM CDT
Civil Twilight 7:29 AM CDT 7:33 PM CDT
Nautical Twilight 6:52 AM CDT 8:10 PM CDT
Astronomical Twilight 6:16 AM CDT 8:46 PM CDT
Moon 6:55 PM CDT (10/12) 8:45 AM CDT (10/12)
Length of Visible Light 12h 04m
Length of Day
11h 02m
Full, 100% of the Moon is Illuminated
Oct 12
Full
Oct 19
Last Quarter
Oct 26
New
Nov 2
First Quarter
Nov 10
Full

Hourly Weather History & Observations

Time (CDT) Temp. Windchill Dew Point Humidity Pressure Visibility Wind Dir Wind Speed Gust Speed Precip Events Conditions
12:55 AM 50.4 °F - 50.4 °F 100% 29.62 in 10.0 mi WSW 5.8 mph - N/A   Mostly Cloudy
1:55 AM 47.7 °F - 47.5 °F 99% 29.62 in 10.0 mi WSW 4.6 mph - N/A   Clear
2:55 AM 50.4 °F - 50.2 °F 99% 29.63 in 10.0 mi West 10.4 mph - N/A   Clear
3:55 AM 52.0 °F - 50.5 °F 95% 29.64 in 10.0 mi West 10.4 mph - N/A   Scattered Clouds
4:55 AM 52.3 °F - 52.0 °F 99% 29.66 in 10.0 mi WNW 11.5 mph - 0.00 in   Overcast
5:55 AM 47.8 °F - 47.7 °F 99% 29.67 in 10.0 mi WNW 10.4 mph - N/A   Clear
6:55 AM 47.7 °F - 47.5 °F 99% 29.67 in 10.0 mi WNW 6.9 mph - N/A   Mostly Cloudy
7:55 AM 46.2 °F 43.3 °F 46.2 °F 100% 29.69 in 10.0 mi West 5.8 mph - N/A   Clear
8:55 AM 50.0 °F - 49.6 °F 99% 29.71 in 10.0 mi West 10.4 mph - N/A   Scattered Clouds
9:55 AM 52.9 °F - 51.6 °F 95% 29.71 in 10.0 mi West 13.8 mph - N/A   Scattered Clouds
10:55 AM 56.8 °F - 46.4 °F 68% 29.72 in 10.0 mi WNW 13.8 mph - N/A   Mostly Cloudy
11:55 AM 59.2 °F - 46.8 °F 63% 29.72 in 10.0 mi WNW 18.4 mph - N/A   Partly Cloudy
12:55 PM 61.2 °F - 46.9 °F 60% 29.74 in 10.0 mi WNW 15.0 mph - N/A   Clear
1:55 PM 62.4 °F - 47.3 °F 58% 29.74 in 10.0 mi WNW 16.1 mph - N/A   Clear
2:55 PM 61.7 °F - 46.8 °F 58% 29.75 in 10.0 mi NW 16.1 mph 23.0 mph N/A   Clear
3:55 PM 60.8 °F - 46.6 °F 59% 29.75 in 10.0 mi WNW 17.3 mph - N/A   Clear
4:55 PM 61.3 °F - 46.9 °F 59% 29.76 in 10.0 mi WNW 17.3 mph - N/A   Clear
5:51 PM 59.0 °F - 44.6 °F 59% 29.79 in 10.0 mi North 15.0 mph - N/A   Overcast
5:55 PM 57.9 °F - 45.0 °F 62% 29.80 in 10.0 mi North 12.7 mph - N/A   Overcast
5:56 PM 57.2 °F - 44.6 °F 63% 29.80 in 10.0 mi North 13.8 mph - N/A   Overcast
6:55 PM 52.5 °F - 52.5 °F 100% 29.82 in 10.0 mi NNW 5.8 mph - 0.00 in   Light Drizzle
7:55 PM 47.8 °F - 47.8 °F 100% 29.84 in 10.0 mi NW 10.4 mph - 0.00 in   Clear
8:55 PM 46.2 °F 43.3 °F 46.2 °F 100% 29.84 in 10.0 mi WNW 5.8 mph - N/A   Clear
9:55 PM 43.7 °F 41.1 °F 43.7 °F 100% 29.84 in 10.0 mi North 4.6 mph - N/A   Clear
10:13 PM 41.0 °F 39.0 °F 41.0 °F 100% 29.85 in 5.0 mi NNW 3.5 mph - N/A   Clear
10:55 PM 40.5 °F 36.5 °F 40.5 °F 100% 29.85 in 9.0 mi WNW 5.8 mph - N/A   Clear
10:56 PM 41.0 °F 37.1 °F 41.0 °F 100% 29.86 in 9.0 mi WNW 5.8 mph - N/A   Clear
11:23 PM 39.2 °F 37.0 °F 39.2 °F 100% 29.85 in 7.0 mi WNW 3.5 mph - N/A   Clear
11:32 PM 39.2 °F 37.0 °F 39.2 °F 100% 29.85 in 5.0 mi WNW 3.5 mph - N/A   Clear
11:42 PM 39.2 °F 35.0 °F 39.2 °F 100% 29.85 in 8.0 mi West 5.8 mph - N/A   Clear
11:55 PM 39.4 °F 35.2 °F 39.4 °F 100% 29.84 in 8.0 mi West 5.8 mph - N/A   Clear